Snowfall_Accumulation
0.0 0.0 0.0 0.0 0.0 0.0 0.0 0.0 0.0 0.0 0.0 0.0 0.0 0.0 0.0 0.0 0.0 0.0 0.0 0.0 0.0 0.0 0.0 0.0 0.0 0.0 0.0 0.0 0.0 0.0 0.0 0.0 0.0 0.0 0.0 0.0 0.0 0.0 0.0 0.0 0.0 0.0 0.0 0.0
0.0 0.0 0.0 0.0 0.0 0.0 0.0 0.0 0.0 0.0 0.0 0.0 0.0 0.0 0.0 0.0 0.0 0.0 0.0 0.0 0.0 0.0 0.0 0.0 0.0 0.0 0.0 0.0 0.0 0.0 0.0 0.0 0.0 0.0 0.0 0.0 0.0 0.0 0.0 0.0 0.0 0.0 0.0 0.0
0.0 0.0 0.0 0.0 0.0 0.0 0.0 0.0 0.0 0.0 0.0 0.0 0.0 0.0 0.0 0.0 0.0 0.0 0.0 0.0 0.0 0.0 0.0 0.0 0.0 0.0 0.0 0.0 0.0 0.0 0.0 0.0 0.0 0.0 0.0 0.0 0.0 0.0 0.0 0.0 0.0 0.0 0.0 0.0
0.0 0.0 0.0 0.0 0.0 0.0 0.0 0.0 0.0 0.0 0.1 0.1 0.0 0.1 0.0 0.0 0.0 0.0 0.0 0.0 0.0 0.0 0.0 0.0 0.0 0.0 0.0 0.0 0.0 0.0 0.0 0.0 0.0 0.0 0.0 0.0 0.0 0.0 0.0 0.0 0.0 0.0 0.0 0.0
0.0 0.0 0.0 0.0 0.0 0.0 0.0 0.0 0.0 0.0 0.0 0.0 0.0 0.1 0.0 0.0 0.0 0.0 0.0 0.0 0.0 0.0 0.0 0.0 0.0 0.0 0.0 0.0 0.0 0.0 0.0 0.0 0.0 0.0 0.0 0.0 0.0 0.0 0.0 0.0 0.0 0.0 0.0 0.0
0.0 0.0 0.0 0.0 0.0 0.0 0.0 0.0 0.0 0.0 0.0 2.4 0.0 0.0 0.0 0.0 0.0 0.0 0.0 0.0 0.0 0.0 0.0 0.0 0.0 0.0 0.0 0.0 0.0 0.0 0.0 0.0 0.0 0.0 0.0 0.0 0.0 0.0 0.0 0.0 0.0 0.0 0.0 0.0
0.0 0.0 0.0 0.0 0.0 0.0 0.0 0.1 6.3 8.9 12.7 2.6 0.0 0.0 0.0 0.0 0.0 0.0 0.0 0.0 0.0 0.0 0.0 0.0 0.0 0.0 0.0 0.0 0.0 0.0 0.0 0.0 0.0 0.0 0.0 0.0 0.0 0.0 0.0 0.0 0.0 0.0 0.0 0.0
2.0 4.8 0.0 0.0 0.0 0.1 0.0 0.1 2.2 2.1 2.6 0.5 0.0 0.1 0.0 0.0 0.0 0.0 0.0 0.0 0.0 0.0 0.0 0.0 0.0 0.0 0.0 0.0 0.0 0.0 0.0 0.0 0.0 0.0 0.0 0.0 0.0 0.0 0.0 0.0 0.0 0.0 0.0 0.0
1.8 0.8 0.0 0.0 0.0 0.0 0.1 1.4 0.0 1.3 1.9 1.0 0.1 0.0 0.0 0.0 0.0 0.0 0.0 0.0 0.0 0.0 0.0 0.0 0.0 0.0 0.0 0.0 0.0 0.0 0.0 0.0 0.0 0.0 0.0 0.0 0.0 0.0 0.0 0.0 0.0 0.0 0.0 0.0
0.5 2.7 0.2 0.0 0.0 0.0 0.0 0.0 1.9 1.7 6.5 1.7 0.3 0.0 0.0 0.0 0.0 0.0 0.0 0.0 0.0 0.0 0.0 0.0 0.0 0.0 0.0 0.0 0.0 0.0 0.0 0.0 0.0 0.0 0.0 0.0 0.0 0.0 0.0 0.0 0.0 0.0 0.0 0.0
0.3 0.8 0.9 0.1 0.6 0.1 0.2 0.7 0.0 0.1 0.7 2.1 2.6 0.3 0.0 0.0 0.0 0.0 0.0 0.0 0.0 0.0 0.0 0.0 0.0 0.0 0.0 0.0 0.0 0.0 0.0 0.0 0.0 0.0 0.0 0.0 0.0 0.0 0.0 0.0 0.0 0.0 0.0 0.0
0.0 0.2 2.3 1.4 0.1 0.0 0.0 0.0 0.0 1.1 2.2 0.7 1.4 1.3 0.0 0.0 0.0 0.0 0.0 0.0 0.0 0.0 0.0 0.0 0.0 0.0 0.0 0.0 0.0 0.0 0.0 0.0 0.0 0.0 0.0 0.0 0.0 0.0 0.0 0.0 0.0 0.0 0.0 0.0
0.0 2.0 5.7 4.1 2.2 0.1 0.2 0.0 0.0 0.0 0.2 1.4 5.0 1.0 0.0 0.0 0.0 0.0 0.0 0.0 0.0 0.0 0.0 0.0 0.0 0.0 0.0 0.0 0.0 0.0 0.0 0.0 0.0 0.0 0.0 0.0 0.0 0.0 0.0 0.0 0.0 0.0 0.0 0.0
nan 1.2 1.7 0.7 0.1 0.1 1.7 0.5 0.0 0.2 5.0 0.5 1.0 0.9 0.0 0.3 0.3 0.0 0.1 0.1 0.0 0.0 0.0 0.0 0.0 0.0 0.0 0.0 0.0 0.0 0.0 0.0 0.0 0.0 0.0 0.0 0.0 0.0 0.0 0.0 0.0 0.0 0.0 0.0
0.0 4.3 2.7 1.4 0.1 0.1 0.2 1.1 2.1 3.1 0.0 2.6 0.5 2.7 0.0 0.1 0.1 0.3 0.1 0.0 0.0 0.9 0.5 0.2 0.3 0.1 0.1 0.0 0.0 0.0 0.0 0.0 0.0 0.0 0.0 0.0 0.0 0.0 0.0 0.0 0.0 0.0 0.0 0.0
0.0 1.9 1.7 4.8 1.6 0.6 1.9 0.3 0.8 2.0 1.4 2.0 1.6 1.4 0.0 0.0 0.0 0.1 0.0 0.0 0.0 0.0 0.4 0.5 0.2 0.2 0.3 0.6 0.1 0.0 0.2 0.0 0.0 0.0 0.0 0.0 0.0 0.0 0.0 0.0 0.0 0.0 0.0 0.0
0.0 1.1 6.9 12.1 2.7 3.9 10.3 0.9 0.3 0.2 0.1 0.1 1.5 0.1 0.0 0.0 0.0 0.0 0.0 0.0 0.0 0.0 0.0 0.0 0.0 0.2 0.2 0.1 0.0 0.0 0.0 0.0 0.0 0.0 0.1 0.0 0.1 0.0 0.0 0.0 0.0 0.0 0.0 0.0
0.5 0.4 1.5 12.3 6.3 33.3 1.2 0.0 0.0 0.2 0.1 0.0 0.0 0.0 0.0 0.0 0.0 0.0 0.0 0.0 0.0 0.0 0.0 0.0 0.0 0.0 0.0 0.0 0.1 0.0 0.0 0.0 0.0 0.0 0.0 0.0 0.0 0.1 0.2 0.2 0.0 0.0 0.0 0.0
0.0 0.4 13.6 23.2 11.7 0.3 0.1 0.0 0.1 0.0 0.0 0.0 0.0 0.0 0.0 0.0 0.0 0.0 0.0 0.0 0.0 0.0 0.0 0.0 0.0 0.0 0.0 0.0 0.0 0.0 0.0 0.1 0.1 0.1 0.0 0.0 0.0 0.1 0.1 0.1 0.0 0.0 0.0 0.0
0.0 0.0 1.9 25.0 17.4 18.2 0.0 0.0 0.0 0.0 0.4 0.0 0.0 0.0 0.0 0.0 0.0 0.0 0.0 0.0 0.0 0.0 0.0 0.0 0.0 0.0 0.0 0.0 0.0 0.0 0.0 0.0 0.1 0.1 0.1 0.0 0.0 0.1 0.1 0.1 0.1 0.1 0.1 0.1
11.4 16.4 27.0 17.7 14.4 3.3 0.0 0.0 0.0 1.3 0.0 0.0 0.0 0.0 0.0 0.0 0.0 0.0 0.0 0.0 0.0 0.0 0.0 0.0 0.0 0.0 0.0 0.0 0.1 0.1 0.1 0.1 0.1 0.1 0.1 0.1 0.1 0.1 0.0 0.1 0.1 0.1 0.1 0.1
4.0 13.0 24.2 14.7 18.2 24.3 0.0 0.0 0.0 0.0 0.0 0.0 0.0 0.0 0.0 0.0 0.0 0.0 0.0 0.0 0.0 0.0 0.0 0.0 0.0 0.0 0.0 0.1 0.0 0.1 0.1 0.2 0.3 0.4 0.4 0.4 0.4 0.1 0.1 0.3 0.3 0.7 0.3 0.4
5.4 0.4 2.2 0.3 1.4 0.0 0.0 0.0 0.0 0.0 0.0 0.0 0.0 0.0 0.0 0.0 0.0 0.0 0.0 0.0 0.0 0.0 0.0 0.0 0.1 0.4 0.4 1.0 0.5 0.7 0.8 1.0 1.5 1.2 1.8 1.5 1.5 1.0 0.8 0.6 0.7 1.3 0.7 1.2
0.1 0.1 1.6 1.4 0.1 0.0 0.0 0.0 0.0 0.0 0.0 0.0 0.0 0.0 0.0 0.0 0.0 0.0 0.0 0.0 0.0 0.1 0.2 0.4 0.8 1.4 1.6 1.4 1.8 1.2 1.4 1.6 2.6 2.0 1.4 1.1 1.2 1.1 1.2 1.3 1.2 1.5 1.6 1.7
0.4 0.2 1.7 1.0 0.1 0.1 0.0 0.0 0.0 0.0 0.0 0.0 0.0 0.0 0.0 0.0 0.0 0.0 0.0 0.0 0.0 0.1 0.8 1.5 2.6 2.9 2.3 2.2 2.2 2.8 2.3 1.5 1.1 1.5 1.2 1.1 1.5 1.1 1.2 1.4 1.4 1.6 0.9 1.4
0.4 0.3 0.8 0.5 0.0 0.0 0.0 0.0 0.0 0.0 0.0 0.0 0.0 0.0 0.1 0.1 0.0 0.1 0.1 0.1 0.1 0.4 0.9 1.8 2.0 2.3 1.8 2.9 3.2 3.9 3.2 1.9 1.4 0.9 2.0 1.5 1.6 1.6 1.5 1.8 2.2 nan nan nan
Water_Equivalent
0.00 0.00 0.00 0.00 0.00 0.00 0.00 0.00 0.00 0.00 0.00 0.00 0.00 0.00 0.00 0.00 0.00 0.00 0.00 0.00 0.00 0.00 0.00 0.00 0.00 0.00 0.00 0.00 0.00 0.00 0.00 0.00 0.00 0.00 0.00 0.00 0.00 0.00 0.00 0.00 0.00 0.00 0.00 0.00
0.01 0.00 0.00 0.00 0.00 0.00 0.00 0.00 0.00 0.00 0.00 0.00 0.00 0.00 0.00 0.00 0.00 0.00 0.00 0.00 0.00 0.00 0.00 0.00 0.00 0.00 0.00 0.00 0.00 0.00 0.00 0.00 0.00 0.00 0.00 0.00 0.00 0.00 0.00 0.00 0.00 0.00 0.00 0.00
0.01 0.00 0.00 0.00 0.00 0.00 0.00 0.00 0.00 0.00 0.00 0.00 0.00 0.00 0.00 0.00 0.00 0.00 0.00 0.00 0.00 0.00 0.00 0.00 0.00 0.00 0.00 0.00 0.00 0.00 0.00 0.00 0.00 0.00 0.00 0.00 0.00 0.00 0.00 0.00 0.00 0.00 0.00 0.00
0.00 0.00 0.00 0.00 0.00 0.00 0.00 0.00 0.00 0.00 0.03 0.03 0.00 0.03 0.00 0.00 0.00 0.00 0.00 0.00 0.00 0.00 0.00 0.00 0.00 0.00 0.00 0.00 0.00 0.00 0.00 0.00 0.00 0.00 0.00 0.00 0.00 0.00 0.00 0.00 0.00 0.00 0.00 0.00
0.00 0.00 0.00 0.00 0.00 0.00 0.00 0.00 0.00 0.00 0.01 0.01 0.00 0.02 0.00 0.00 0.00 0.00 0.00 0.00 0.00 0.00 0.00 0.00 0.00 0.00 0.00 0.00 0.00 0.00 0.00 0.00 0.00 0.00 0.00 0.00 0.00 0.00 0.00 0.00 0.00 0.00 0.00 0.00
0.00 0.00 0.00 0.00 0.00 0.00 0.00 0.00 0.00 0.00 0.00 0.67 0.00 0.00 0.00 0.00 0.00 0.00 0.00 0.00 0.00 0.00 0.00 0.00 0.00 0.00 0.00 0.00 0.00 0.00 0.00 0.00 0.00 0.00 0.00 0.00 0.00 0.00 0.00 0.00 0.00 0.00 0.00 0.00
0.00 0.00 0.00 0.00 0.00 0.00 0.00 0.02 1.77 2.40 3.31 0.70 0.00 0.00 0.00 0.00 0.00 0.00 0.00 0.00 0.00 0.00 0.00 0.00 0.00 0.00 0.00 0.00 0.00 0.00 0.00 0.00 0.00 0.00 0.00 0.00 0.00 0.00 0.00 0.00 0.00 0.00 0.00 0.00
0.60 1.38 0.00 0.00 0.00 0.02 0.00 0.02 0.60 0.45 0.60 0.15 0.00 0.02 0.00 0.00 0.00 0.00 0.00 0.00 0.00 0.00 0.00 0.00 0.00 0.00 0.00 0.00 0.00 0.00 0.00 0.00 0.00 0.00 0.00 0.00 0.00 0.00 0.00 0.00 0.00 0.00 0.00 0.00
0.52 0.23 0.00 0.00 0.00 0.00 0.04 0.38 0.00 0.30 0.39 0.27 0.02 0.00 0.00 0.00 0.00 0.00 0.00 0.00 0.00 0.00 0.00 0.00 0.00 0.00 0.00 0.00 0.00 0.00 0.00 0.00 0.00 0.00 0.00 0.00 0.00 0.00 0.00 0.00 0.00 0.00 0.00 0.00
0.16 0.66 0.07 0.00 0.00 0.00 0.00 0.00 0.54 0.53 1.44 0.39 0.13 0.00 0.02 0.00 0.00 0.00 0.00 0.00 0.00 0.00 0.00 0.00 0.00 0.00 0.00 0.00 0.00 0.00 0.00 0.00 0.00 0.00 0.00 0.00 0.00 0.00 0.00 0.00 0.00 0.00 0.00 0.00
0.12 0.21 0.27 0.03 0.20 0.05 0.07 0.22 0.00 0.05 0.23 0.49 0.62 0.07 0.00 0.00 0.00 0.00 0.00 0.00 0.00 0.00 0.00 0.00 0.00 0.00 0.00 0.00 0.00 0.00 0.00 0.00 0.00 0.00 0.00 0.00 0.00 0.00 0.00 0.00 0.00 0.00 0.00 0.00
0.00 0.06 0.59 0.38 0.02 0.00 0.00 0.00 0.00 0.30 0.55 0.20 0.35 0.24 0.00 0.00 0.00 0.00 0.00 0.00 0.00 0.00 0.00 0.00 0.00 0.00 0.00 0.00 0.00 0.00 0.00 0.00 0.00 0.00 0.00 0.00 0.00 0.00 0.00 0.00 0.00 0.00 0.00 0.00
0.00 0.63 1.47 1.13 0.61 0.04 0.06 0.00 0.00 0.01 0.06 0.27 1.12 0.24 0.00 0.00 0.00 0.00 0.00 0.00 0.00 0.00 0.00 0.00 0.00 0.00 0.00 0.00 0.00 0.00 0.00 0.00 0.00 0.00 0.00 0.00 0.00 0.00 0.00 0.00 0.00 0.00 0.00 0.00
nan 0.35 0.41 0.18 0.04 0.04 0.42 0.15 0.01 0.05 1.28 0.15 0.25 0.23 0.02 0.09 0.10 0.01 0.02 0.02 0.02 0.01 0.01 0.00 0.00 0.00 0.00 0.00 0.00 0.00 0.00 0.00 0.00 0.00 0.00 0.00 0.00 0.00 0.00 0.00 0.00 0.00 0.00 0.00
0.00 1.11 0.64 0.34 0.04 0.02 0.05 0.26 0.44 0.59 0.01 0.64 0.12 0.64 0.02 0.02 0.05 0.11 0.02 0.00 0.02 0.37 0.18 0.07 0.10 0.05 0.02 0.02 0.01 0.00 0.00 0.00 0.00 0.00 0.00 0.00 0.00 0.00 0.00 0.00 0.00 0.00 0.00 0.00
0.00 0.59 0.37 0.92 0.35 0.15 0.38 0.07 0.21 0.42 0.36 0.46 0.36 0.30 0.00 0.00 0.00 0.03 0.01 0.01 0.01 0.01 0.15 0.21 0.07 0.07 0.10 0.20 0.02 0.00 0.09 0.01 0.00 0.00 0.00 0.00 0.00 0.00 0.00 0.00 0.00 0.00 0.00 0.00
0.01 0.32 2.29 3.60 0.47 0.71 2.33 0.16 0.06 0.06 0.03 0.02 0.34 0.02 0.00 0.01 0.00 0.00 0.00 0.00 0.00 0.00 0.00 0.00 0.00 0.06 0.06 0.02 0.00 0.01 0.00 0.00 0.00 0.00 0.02 0.01 0.03 0.01 0.00 0.01 0.00 0.00 0.00 0.00
0.10 0.12 0.52 3.48 1.82 6.90 0.31 0.01 0.01 0.05 0.03 0.01 0.01 0.01 0.00 0.00 0.00 0.00 0.00 0.00 0.00 0.00 0.00 0.00 0.00 0.00 0.00 0.01 0.05 0.01 0.00 0.00 0.00 0.00 0.00 0.00 0.00 0.06 0.06 0.09 0.01 0.00 0.00 0.01
0.00 0.08 3.29 5.24 2.83 0.07 0.02 0.01 0.04 0.01 0.01 0.00 0.00 0.00 0.00 0.00 0.00 0.00 0.00 0.00 0.00 0.00 0.00 0.00 0.00 0.00 0.00 0.00 0.00 0.00 0.02 0.02 0.02 0.02 0.01 0.01 0.02 0.03 0.03 0.02 0.02 0.01 0.00 0.00
0.00 0.00 0.43 5.70 4.64 3.17 0.01 0.00 0.00 0.00 0.12 0.00 0.00 0.00 0.00 0.00 0.00 0.00 0.00 0.00 0.00 0.00 0.00 0.00 0.00 0.00 0.00 0.00 0.00 0.00 0.01 0.02 0.03 0.03 0.02 0.02 0.02 0.02 0.02 0.03 0.04 0.04 0.03 0.04
2.86 4.35 6.27 4.38 3.78 0.97 0.00 0.00 0.00 0.35 0.01 0.00 0.00 0.00 0.00 0.00 0.00 0.00 0.00 0.00 0.00 0.00 0.00 0.00 0.00 0.00 0.00 0.01 0.03 0.03 0.03 0.03 0.03 0.04 0.03 0.03 0.02 0.03 0.02 0.03 0.03 0.04 0.05 0.04
0.76 2.77 5.34 3.40 4.18 4.32 0.00 0.00 0.00 0.00 0.00 0.00 0.00 0.00 0.00 0.00 0.00 0.00 0.00 0.00 0.00 0.00 0.00 0.00 0.00 0.00 0.01 0.03 0.02 0.03 0.03 0.04 0.08 0.10 0.10 0.11 0.14 0.05 0.04 0.13 0.10 0.26 0.10 0.17
1.11 0.11 0.71 0.08 0.43 0.00 0.00 0.00 0.00 0.00 0.00 0.00 0.00 0.00 0.00 0.00 0.00 0.00 0.00 0.00 0.00 0.00 0.00 0.01 0.02 0.07 0.08 0.20 0.11 0.15 0.17 0.19 0.27 0.30 0.50 0.45 0.43 0.34 0.28 0.26 0.23 0.52 0.26 0.47
0.03 0.03 0.55 0.43 0.03 0.00 0.00 0.00 0.00 0.00 0.00 0.00 0.00 0.00 0.00 0.00 0.00 0.00 0.00 0.00 0.00 0.02 0.04 0.08 0.14 0.22 0.23 0.22 0.27 0.23 0.23 0.28 0.72 0.56 0.33 0.27 0.33 0.31 0.36 0.49 0.46 0.60 0.60 0.58
0.14 0.08 0.41 0.26 0.03 0.04 0.00 0.00 0.00 0.00 0.00 0.00 0.00 0.00 0.00 0.00 0.00 0.00 0.00 0.01 0.01 0.03 0.12 0.23 0.37 0.38 0.33 0.30 0.31 0.42 0.36 0.33 0.28 0.36 0.24 0.27 0.42 0.33 0.29 0.33 0.49 0.51 0.25 0.53
0.09 0.07 0.22 0.17 0.01 0.00 0.00 0.00 0.00 0.00 0.00 0.00 0.00 0.01 0.02 0.02 0.01 0.03 0.02 0.02 0.03 0.07 0.15 0.25 0.28 0.29 0.24 0.35 0.40 0.54 0.63 0.43 0.33 0.19 0.46 0.40 0.42 0.41 0.40 0.46 0.55 nan nan nan
SL_Ratio
nan nan nan nan nan nan nan nan nan nan nan nan nan nan nan nan nan nan nan nan nan nan nan nan nan nan nan nan nan nan nan nan nan nan nan nan nan nan nan nan nan nan nan nan
2.6 nan nan nan nan nan nan nan 2.5 nan nan nan nan nan nan nan nan nan nan nan nan nan nan nan nan nan nan nan nan nan nan nan nan nan nan nan nan nan nan nan nan nan nan nan
2.7 nan nan nan nan nan nan nan nan nan nan nan nan nan nan nan nan nan nan nan nan nan nan nan nan nan nan nan nan nan nan nan nan nan nan nan nan nan nan nan nan nan nan nan
2.5 nan nan nan nan nan nan nan nan nan 2.7 3.3 nan 3.3 nan nan nan nan nan nan nan nan nan nan nan nan nan nan nan nan nan nan nan nan nan nan nan nan nan nan nan nan nan nan
nan nan nan nan nan nan nan nan nan nan 2.5 3.3 nan 3.3 nan nan nan nan nan nan nan nan nan nan nan nan nan nan nan nan nan nan nan nan nan nan nan nan nan nan nan nan nan nan
nan nan nan nan nan nan nan nan nan nan 5.0 3.6 nan nan nan nan nan nan nan nan nan nan nan nan nan nan nan nan nan nan nan nan nan nan nan nan nan nan nan nan nan nan nan nan
nan nan nan nan nan nan nan 3.2 3.6 3.7 3.8 3.8 nan 2.5 nan nan nan nan nan nan nan nan nan nan nan nan nan nan nan nan nan nan nan nan nan nan nan nan nan nan nan nan nan nan
3.2 3.4 nan nan nan 2.9 nan 2.9 3.6 4.8 4.4 3.5 nan 3.2 nan nan nan nan nan nan nan nan nan nan nan nan nan nan nan nan nan nan nan nan nan nan nan nan nan nan nan nan nan nan
3.5 3.4 nan nan nan nan 3.4 3.6 nan 4.4 4.7 3.6 2.5 nan nan nan nan nan nan nan nan nan nan nan nan nan nan nan nan nan nan nan nan nan nan nan nan nan nan nan nan nan nan nan
3.0 4.1 2.8 nan 3.0 nan 3.3 nan 3.5 3.2 4.5 4.5 2.7 4.0 2.9 nan nan nan nan nan nan nan nan nan nan nan nan nan nan nan nan nan nan nan nan nan nan nan nan nan nan nan nan nan
2.5 4.0 3.5 2.9 2.8 2.7 3.2 3.1 5.0 2.7 2.8 4.2 4.2 4.1 nan nan nan nan nan nan nan nan nan nan nan nan nan nan nan nan nan nan nan nan nan nan nan nan nan nan nan nan nan nan
nan 3.3 3.8 3.6 2.9 nan nan nan 5.0 3.7 4.0 3.5 4.0 5.4 nan nan nan nan nan nan nan nan nan nan nan nan nan nan nan nan nan nan nan nan nan nan nan nan nan nan nan nan nan nan
nan 3.2 3.8 3.6 3.7 2.8 2.9 nan nan 3.8 3.7 5.2 4.5 4.4 nan nan 2.5 nan nan 2.5 nan nan nan nan nan nan nan nan nan nan nan nan nan nan nan nan nan nan nan nan nan nan nan nan
nan 3.5 4.1 3.8 3.7 3.0 4.1 3.6 3.3 4.1 3.9 3.7 4.0 4.0 2.8 2.9 3.3 2.6 2.6 2.5 2.5 2.4 2.3 1.7 2.5 nan nan nan nan nan nan nan nan nan nan nan nan nan nan nan nan nan nan nan
0.0 3.8 4.3 4.0 3.4 3.3 3.6 4.3 4.6 5.2 2.9 4.0 3.9 4.2 2.8 2.8 2.8 2.7 2.5 2.5 2.5 2.5 2.6 2.7 2.7 2.7 2.8 2.6 2.6 5.0 nan 2.1 nan nan nan nan nan nan nan nan nan nan nan nan
nan 3.2 4.7 5.2 4.5 3.7 5.0 3.8 3.9 4.8 4.0 4.4 4.5 4.8 nan nan nan 2.9 2.7 2.6 2.5 2.3 2.5 2.5 2.8 2.7 3.1 3.1 2.8 nan 2.5 2.2 nan 2.5 nan nan nan nan nan nan nan nan nan nan
3.9 3.6 3.0 3.3 5.7 5.5 4.4 5.2 4.1 3.7 3.2 3.0 4.4 3.5 nan 2.3 nan 0.0 nan nan 2.5 nan nan 2.5 2.5 2.5 3.0 2.9 3.3 3.1 nan 2.5 nan nan 2.5 2.5 2.5 2.6 2.5 2.7 nan nan 2.1 2.5
5.3 3.7 2.8 3.5 3.4 4.8 3.8 2.9 3.0 3.5 2.9 2.5 2.7 2.8 nan nan nan nan nan nan nan nan nan nan nan nan nan 3.4 2.9 2.5 nan nan 2.1 nan nan nan nan 2.5 2.5 2.5 2.5 2.5 3.0 2.6
nan 4.8 4.1 4.4 4.1 4.1 3.4 3.3 3.8 3.7 2.9 nan nan nan nan nan nan nan nan nan nan nan nan nan nan nan nan nan 2.5 0.0 3.0 2.8 2.7 2.6 2.5 2.4 2.5 2.6 2.4 2.4 2.6 2.5 2.5 2.5
5.0 4.3 4.3 4.4 3.8 5.7 3.3 nan nan nan 3.1 nan nan nan nan nan 2.5 nan nan nan nan nan nan nan nan nan nan nan nan 5.0 2.9 2.8 3.5 3.1 2.9 2.7 2.5 2.5 2.6 2.6 2.7 2.6 2.5 2.5
4.0 3.8 4.3 4.0 3.8 3.4 nan nan nan 3.8 3.0 2.5 nan nan nan nan nan nan nan nan nan nan nan nan nan nan 2.9 2.8 2.6 2.9 3.1 3.2 3.1 3.2 2.9 2.7 2.6 2.4 2.4 2.4 2.5 2.5 2.5 2.5
5.3 4.7 4.5 4.3 4.4 5.6 nan nan nan nan nan nan nan nan nan nan nan nan nan nan nan nan nan 3.0 nan 2.5 3.1 3.5 2.9 3.3 3.2 3.8 4.2 3.9 3.5 3.4 2.9 2.5 2.6 2.5 2.6 2.5 2.5 2.5
4.8 3.7 3.1 3.4 3.2 nan nan nan nan nan nan nan nan nan nan nan nan nan nan nan nan nan nan 3.8 3.6 4.7 5.4 5.1 4.2 4.8 5.0 5.4 5.5 3.9 3.7 3.3 3.5 3.0 2.7 2.5 2.8 2.6 2.5 2.5
3.2 3.0 2.9 3.3 2.6 nan nan nan nan nan nan nan nan nan nan nan nan nan nan nan nan 3.8 4.5 5.2 5.5 6.4 6.9 6.6 6.8 5.1 5.8 5.6 3.6 3.5 4.1 4.1 3.7 3.6 3.4 2.7 2.6 2.5 2.6 2.9
3.2 3.1 4.2 3.7 3.2 3.2 2.9 nan nan nan nan nan nan nan nan nan nan nan 2.9 2.6 2.6 4.0 6.2 6.3 7.0 7.5 6.9 7.4 7.3 6.6 6.3 4.7 4.1 4.1 5.0 4.2 3.6 3.2 3.9 4.3 2.9 3.1 3.4 2.7
4.0 4.6 3.5 2.8 2.5 1.7 0.0 2.0 2.5 nan nan nan nan 3.0 3.0 2.9 2.5 3.3 3.2 3.1 3.7 5.1 6.1 7.3 7.2 7.8 7.3 8.3 7.9 7.3 5.1 4.4 4.3 4.5 4.3 3.8 3.8 3.8 3.9 4.0 4.0 nan nan nan